CQH1097 ZUCK-ZJSY

Flight info

Callsign CQH1097
Flight time 2h 6m
Altitude 31100
Route VILUS6Y VILUS W180 ELBAV W181 DUDIT A599 LBN W159 BHY W70 NYB G221 WL
Aircraft A320/M-SDE3FGHIRWY/LB1

Departure

Time 2026-04-30 09:55
Airport Chongqing Jiangbei International Airport (ZUCK)

Arrival

Time 2026-04-30 12:02
Airport Sanya Phoenix International Airport (ZJSY)
Time Latitude Longitude Altitude Speed Heading
2026-04-30 09:14 29.72798 106.65434 1350 ft 0 kts 28°
2026-04-30 09:47 29.72794 106.65431 1350 ft 4 kts 28°
2026-04-30 09:47 29.72769 106.65418 1354 ft 4 kts 19°
2026-04-30 09:48 29.72744 106.65411 1350 ft 4 kts 359°
2026-04-30 09:48 29.72722 106.65418 1350 ft 4 kts 297°
2026-04-30 09:48 29.72720 106.65422 1350 ft 0 kts 287°
2026-04-30 09:50 29.72721 106.65419 1350 ft 3 kts 287°
2026-04-30 09:50 29.72731 106.65379 1351 ft 4 kts 287°
2026-04-30 09:51 29.72737 106.65356 1351 ft 3 kts 287°
2026-04-30 09:51 29.72742 106.65338 1352 ft 3 kts 287°
2026-04-30 09:51 29.72746 106.65322 1352 ft 1 kts 286°
2026-04-30 09:51 29.72756 106.65289 1352 ft 6 kts 290°
2026-04-30 09:52 29.72803 106.65254 1353 ft 13 kts
2026-04-30 09:52 29.72911 106.65293 1355 ft 18 kts 17°
2026-04-30 09:52 29.73034 106.65337 1355 ft 19 kts 17°
2026-04-30 09:52 29.73170 106.65384 1354 ft 21 kts 16°
2026-04-30 09:53 29.73316 106.65435 1353 ft 23 kts 18°
2026-04-30 09:53 29.73468 106.65480 1352 ft 20 kts 344°
2026-04-30 09:53 29.73520 106.65347 1356 ft 19 kts 276°
2026-04-30 09:53 29.73543 106.65230 1354 ft 13 kts 285°
2026-04-30 09:54 29.73544 106.65134 1353 ft 12 kts 233°
2026-04-30 09:54 29.73507 106.65113 1354 ft 0 kts 196°
2026-04-30 09:54 29.73411 106.65080 1354 ft 48 kts 196°
2026-04-30 09:54 29.72855 106.64889 1359 ft 116 kts 197°
2026-04-30 09:55 29.72250 106.64678 1355 ft 152 kts 197°
2026-04-30 09:55 29.71126 106.64297 1638 ft 175 kts 196°
2026-04-30 09:55 29.69549 106.63759 2562 ft 179 kts 194°
2026-04-30 09:55 29.68718 106.63472 2867 ft 192 kts 195°
2026-04-30 09:56 29.67330 106.62995 2975 ft 227 kts 195°
2026-04-30 09:56 29.65706 106.62437 3013 ft 254 kts 195°
2026-04-30 09:56 29.64002 106.61850 3013 ft 257 kts 195°
2026-04-30 09:56 29.62280 106.61258 3257 ft 264 kts 195°
2026-04-30 09:57 29.60523 106.60652 4315 ft 262 kts 195°
2026-04-30 09:57 29.58768 106.60046 5305 ft 265 kts 195°
2026-04-30 09:57 29.56995 106.59431 6294 ft 268 kts 196°
2026-04-30 09:57 29.55214 106.58786 7209 ft 270 kts 197°
2026-04-30 09:58 29.53413 106.58114 8115 ft 274 kts 197°
2026-04-30 09:58 29.51591 106.57429 9027 ft 277 kts 198°
2026-04-30 09:58 29.49751 106.56734 9929 ft 281 kts 198°
2026-04-30 09:58 29.47849 106.56017 10454 ft 298 kts 198°
2026-04-30 09:59 29.43463 106.55531 11176 ft 338 kts 170°
2026-04-30 09:59 29.39235 106.57964 12523 ft 355 kts 138°
2026-04-30 10:00 29.35871 106.62232 13867 ft 365 kts 134°
2026-04-30 10:00 29.34182 106.64409 14456 ft 369 kts 134°
2026-04-30 10:01 29.30706 106.68881 15570 ft 379 kts 134°
2026-04-30 10:01 29.28937 106.71145 16184 ft 383 kts 134°
2026-04-30 10:01 29.27149 106.73427 16769 ft 387 kts 134°
2026-04-30 10:02 29.23518 106.78063 17889 ft 394 kts 134°
2026-04-30 10:02 29.21681 106.80409 18435 ft 398 kts 134°
2026-04-30 10:02 29.19825 106.82780 18899 ft 401 kts 134°
2026-04-30 10:02 29.17954 106.85171 19385 ft 405 kts 134°
2026-04-30 10:03 29.16063 106.87583 19629 ft 407 kts 134°
2026-04-30 10:03 29.14172 106.89990 19693 ft 407 kts 135°
2026-04-30 10:03 29.12123 106.92202 19715 ft 405 kts 145°
2026-04-30 10:03 29.09756 106.93906 19711 ft 400 kts 156°
2026-04-30 10:04 29.07156 106.95020 19852 ft 399 kts 168°
2026-04-30 10:04 29.04418 106.95527 20352 ft 399 kts 179°
2026-04-30 10:04 29.01645 106.95549 20803 ft 401 kts 183°
2026-04-30 10:04 28.98847 106.95516 21284 ft 404 kts 182°
2026-04-30 10:05 28.96094 106.95485 21750 ft 407 kts 182°
2026-04-30 10:05 28.93251 106.95454 22204 ft 410 kts 182°
2026-04-30 10:05 28.90384 106.95421 22637 ft 414 kts 182°
2026-04-30 10:05 28.87489 106.95388 23041 ft 417 kts 182°
2026-04-30 10:06 28.86638 106.95378 23165 ft 418 kts 182°
2026-04-30 10:06 28.83835 106.95342 23610 ft 420 kts 183°
2026-04-30 10:06 28.80894 106.95307 23942 ft 423 kts 183°
2026-04-30 10:06 28.77937 106.95273 24312 ft 426 kts 183°
2026-04-30 10:07 28.74967 106.95239 24666 ft 429 kts 183°
2026-04-30 10:07 28.71969 106.95203 25037 ft 431 kts 184°
2026-04-30 10:07 28.68960 106.95166 25392 ft 434 kts 184°
2026-04-30 10:07 28.65928 106.95131 25733 ft 437 kts 184°
2026-04-30 10:08 28.62876 106.95097 26071 ft 440 kts 184°
2026-04-30 10:08 28.59803 106.95065 26401 ft 443 kts 184°
2026-04-30 10:08 28.56755 106.95030 26709 ft 446 kts 185°
2026-04-30 10:08 28.53639 106.94990 26831 ft 447 kts 185°
2026-04-30 10:09 28.50518 106.94949 27078 ft 450 kts 185°
2026-04-30 10:09 28.47382 106.94910 27428 ft 452 kts 185°
2026-04-30 10:09 28.44224 106.94873 27745 ft 455 kts 185°
2026-04-30 10:09 28.41054 106.94836 28081 ft 457 kts 185°
2026-04-30 10:10 28.37868 106.94798 28429 ft 459 kts 185°
2026-04-30 10:10 28.34669 106.94760 28748 ft 461 kts 185°
2026-04-30 10:10 28.31449 106.94720 29042 ft 464 kts 185°
2026-04-30 10:10 28.28223 106.94679 29334 ft 466 kts 185°
2026-04-30 10:11 28.24966 106.94638 29629 ft 468 kts 185°
2026-04-30 10:11 28.22508 106.94634 29837 ft 471 kts 184°
2026-04-30 10:12 28.18300 106.94758 30191 ft 476 kts 182°
2026-04-30 10:12 28.14985 106.94966 30445 ft 478 kts 181°
2026-04-30 10:12 28.11666 106.95220 30715 ft 479 kts 180°
2026-04-30 10:12 28.08337 106.95480 31019 ft 479 kts 181°
2026-04-30 10:13 28.05015 106.95718 31141 ft 477 kts 181°
2026-04-30 10:13 27.98501 106.96096 31167 ft 464 kts 182°
2026-04-30 10:14 27.92069 106.96398 31165 ft 462 kts 182°
2026-04-30 10:14 27.82474 106.96871 31167 ft 462 kts 182°
2026-04-30 10:15 27.76057 106.97219 31167 ft 462 kts 182°
2026-04-30 10:15 27.69636 106.97571 31156 ft 461 kts 182°
2026-04-30 10:16 27.63232 106.97908 31152 ft 461 kts 182°
2026-04-30 10:17 27.53625 106.98407 31136 ft 461 kts 182°
2026-04-30 10:17 27.44149 106.98904 31140 ft 461 kts 182°
2026-04-30 10:18 27.37740 106.99245 31140 ft 461 kts 182°
2026-04-30 10:19 27.28136 106.99760 31145 ft 461 kts 182°
2026-04-30 10:19 27.21729 107.00110 31150 ft 461 kts 182°
2026-04-30 10:20 27.15326 107.00456 31151 ft 461 kts 182°
2026-04-30 10:20 27.05715 107.00968 31152 ft 461 kts 182°
2026-04-30 10:21 26.99299 107.01322 31148 ft 461 kts 182°
2026-04-30 10:21 26.92925 107.01668 31151 ft 462 kts 182°
2026-04-30 10:22 26.86505 107.01981 31159 ft 462 kts 182°
2026-04-30 10:22 26.80065 107.02270 31162 ft 462 kts 182°
2026-04-30 10:23 26.73638 107.02594 31170 ft 463 kts 182°
2026-04-30 10:23 26.67212 107.02947 31165 ft 463 kts 182°
2026-04-30 10:24 26.60774 107.03288 31177 ft 463 kts 182°
2026-04-30 10:24 26.54344 107.03625 31184 ft 463 kts 182°
2026-04-30 10:25 26.47913 107.03950 31184 ft 463 kts 182°
2026-04-30 10:25 26.41472 107.04252 31170 ft 462 kts 182°
2026-04-30 10:26 26.35048 107.04557 31182 ft 464 kts 177°
2026-04-30 10:26 26.28822 107.06630 31184 ft 475 kts 155°
2026-04-30 10:27 26.26017 107.08614 31184 ft 480 kts 144°
2026-04-30 10:27 26.23570 107.11089 31182 ft 483 kts 137°
2026-04-30 10:27 26.18797 107.16356 31180 ft 483 kts 138°
2026-04-30 10:28 26.13996 107.21601 31173 ft 483 kts 138°
2026-04-30 10:28 26.09203 107.26833 31187 ft 482 kts 138°
2026-04-30 10:29 26.04431 107.32060 31198 ft 481 kts 138°
2026-04-30 10:29 25.99665 107.37270 31194 ft 480 kts 138°
2026-04-30 10:30 25.94906 107.42459 31189 ft 479 kts 138°
2026-04-30 10:30 25.90153 107.47641 31175 ft 479 kts 138°
2026-04-30 10:31 25.85402 107.52817 31173 ft 478 kts 138°
2026-04-30 10:31 25.80641 107.57986 31174 ft 478 kts 138°
2026-04-30 10:32 25.75889 107.63152 31156 ft 478 kts 138°
2026-04-30 10:32 25.71138 107.68308 31160 ft 479 kts 138°
2026-04-30 10:33 25.66392 107.73492 31147 ft 479 kts 137°
2026-04-30 10:33 25.61657 107.78694 31147 ft 479 kts 137°
2026-04-30 10:34 25.56909 107.83894 31146 ft 480 kts 137°
2026-04-30 10:34 25.52153 107.89078 31146 ft 480 kts 138°
2026-04-30 10:35 25.47107 107.93844 31144 ft 475 kts 151°
2026-04-30 10:35 25.41114 107.96671 31122 ft 466 kts 170°
2026-04-30 10:36 25.34772 107.97643 31125 ft 462 kts 177°
2026-04-30 10:36 25.28376 107.98419 31132 ft 463 kts 177°
2026-04-30 10:37 25.21971 107.99202 31124 ft 463 kts 177°
2026-04-30 10:37 25.15566 107.99990 31125 ft 463 kts 177°
2026-04-30 10:38 25.09161 108.00775 31118 ft 463 kts 177°
2026-04-30 10:38 25.03832 108.01421 31123 ft 463 kts 177°
2026-04-30 10:39 24.97441 108.02193 31123 ft 463 kts 177°
2026-04-30 10:39 24.91045 108.02970 31127 ft 462 kts 177°
2026-04-30 10:40 24.84643 108.03749 31122 ft 462 kts 177°
2026-04-30 10:40 24.78246 108.04523 31117 ft 462 kts 176°
2026-04-30 10:41 24.71857 108.05289 31115 ft 462 kts 176°
2026-04-30 10:41 24.65473 108.06060 31117 ft 461 kts 176°
2026-04-30 10:42 24.59091 108.06840 31116 ft 461 kts 176°
2026-04-30 10:42 24.52701 108.07613 31107 ft 461 kts 176°
2026-04-30 10:43 24.46363 108.08380 31116 ft 461 kts 176°
2026-04-30 10:43 24.39989 108.09155 31120 ft 461 kts 176°
2026-04-30 10:44 24.33611 108.09934 31121 ft 461 kts 176°
2026-04-30 10:44 24.27234 108.10709 31125 ft 461 kts 176°
2026-04-30 10:45 24.20864 108.11477 31127 ft 461 kts 176°
2026-04-30 10:45 24.14486 108.12249 31120 ft 461 kts 176°
2026-04-30 10:46 24.08109 108.13021 31117 ft 461 kts 176°
2026-04-30 10:46 24.01743 108.13783 31118 ft 461 kts 176°
2026-04-30 10:47 23.95367 108.14556 31115 ft 461 kts 176°
2026-04-30 10:47 23.89066 108.15850 31097 ft 466 kts 160°
2026-04-30 10:48 23.86244 108.17589 31104 ft 470 kts 144°
2026-04-30 10:48 23.83952 108.20076 31106 ft 473 kts 128°
2026-04-30 10:48 23.82326 108.23189 31102 ft 475 kts 111°
2026-04-30 10:48 23.81509 108.26669 31102 ft 475 kts 96°
2026-04-30 10:49 23.81063 108.33871 31098 ft 476 kts 93°
2026-04-30 10:49 23.80678 108.41092 31098 ft 476 kts 93°
2026-04-30 10:50 23.80274 108.48320 31102 ft 477 kts 93°
2026-04-30 10:50 23.79857 108.55552 31103 ft 477 kts 93°
2026-04-30 10:51 23.79435 108.62789 31104 ft 478 kts 93°
2026-04-30 10:51 23.79013 108.70027 31112 ft 478 kts 94°
2026-04-30 10:52 23.78589 108.77271 31116 ft 478 kts 93°
2026-04-30 10:52 23.78161 108.84508 31114 ft 478 kts 93°
2026-04-30 10:53 23.77723 108.91761 31111 ft 478 kts 93°
2026-04-30 10:53 23.77294 108.98955 31115 ft 478 kts 93°
2026-04-30 10:54 23.76439 109.06126 31111 ft 477 kts 109°
2026-04-30 10:54 23.75033 109.09391 31111 ft 475 kts 124°
2026-04-30 10:54 23.72960 109.12166 31108 ft 471 kts 139°
2026-04-30 10:55 23.70353 109.14294 31104 ft 466 kts 153°
2026-04-30 10:55 23.67389 109.15666 31103 ft 461 kts 167°
2026-04-30 10:55 23.61090 109.16697 31101 ft 458 kts 176°
2026-04-30 10:56 23.54752 109.17525 31101 ft 458 kts 176°
2026-04-30 10:56 23.48410 109.18354 31106 ft 459 kts 176°
2026-04-30 10:57 23.42063 109.19190 31101 ft 460 kts 176°
2026-04-30 10:57 23.35708 109.20031 31106 ft 460 kts 175°
2026-04-30 10:58 23.29353 109.20874 31110 ft 460 kts 176°
2026-04-30 10:58 23.23001 109.21708 31116 ft 460 kts 176°
2026-04-30 10:59 23.16646 109.22537 31103 ft 460 kts 176°
2026-04-30 10:59 23.10295 109.23372 31111 ft 460 kts 175°
2026-04-30 11:00 23.03931 109.24204 31116 ft 460 kts 175°
2026-04-30 11:00 22.97579 109.25039 31117 ft 460 kts 175°
2026-04-30 11:01 22.91217 109.25875 31117 ft 460 kts 175°
2026-04-30 11:01 22.84858 109.26704 31113 ft 460 kts 176°
2026-04-30 11:02 22.78502 109.27536 31117 ft 460 kts 176°
2026-04-30 11:02 22.72149 109.28361 31116 ft 460 kts 176°
2026-04-30 11:03 22.65796 109.29195 31116 ft 460 kts 175°
2026-04-30 11:04 22.56273 109.30459 31118 ft 460 kts 175°
2026-04-30 11:04 22.49923 109.31295 31116 ft 460 kts 176°
2026-04-30 11:05 22.43573 109.32129 31116 ft 459 kts 176°
2026-04-30 11:05 22.37270 109.32957 31112 ft 459 kts 176°
2026-04-30 11:06 22.30928 109.33792 31112 ft 459 kts 176°
2026-04-30 11:06 22.24581 109.34631 31112 ft 459 kts 176°
2026-04-30 11:07 22.18237 109.35458 31114 ft 459 kts 176°
2026-04-30 11:07 22.11898 109.36275 31116 ft 458 kts 176°
2026-04-30 11:08 22.05565 109.37097 31117 ft 458 kts 176°
2026-04-30 11:08 21.99235 109.37917 31113 ft 458 kts 176°
2026-04-30 11:09 21.92902 109.38735 31111 ft 458 kts 176°
2026-04-30 11:09 21.86580 109.39555 31105 ft 457 kts 177°
2026-04-30 11:10 21.80268 109.40373 31105 ft 457 kts 177°
2026-04-30 11:10 21.73953 109.41187 31105 ft 456 kts 177°
2026-04-30 11:11 21.67699 109.41993 31104 ft 456 kts 177°
2026-04-30 11:11 21.61406 109.42851 31097 ft 458 kts 173°
2026-04-30 11:12 21.55373 109.45198 31092 ft 468 kts 154°
2026-04-30 11:12 21.49722 109.48699 31090 ft 469 kts 154°
2026-04-30 11:13 21.44066 109.52196 31090 ft 469 kts 154°
2026-04-30 11:13 21.38421 109.55688 31090 ft 469 kts 154°
2026-04-30 11:14 21.32689 109.58996 31089 ft 463 kts 163°
2026-04-30 11:14 21.26525 109.60616 31080 ft 453 kts 178°
2026-04-30 11:15 21.20320 109.61509 31097 ft 453 kts 178°
2026-04-30 11:15 21.14079 109.62417 31103 ft 452 kts 178°
2026-04-30 11:16 21.07846 109.63318 31103 ft 452 kts 178°
2026-04-30 11:16 21.01619 109.64212 31104 ft 451 kts 178°
2026-04-30 11:17 20.97350 109.64830 31104 ft 451 kts 178°
2026-04-30 11:17 20.93083 109.65451 31103 ft 451 kts 178°
2026-04-30 11:18 20.88920 109.66057 31103 ft 451 kts 178°
2026-04-30 11:18 20.79584 109.67406 31102 ft 451 kts 178°
2026-04-30 11:19 20.73370 109.68297 31101 ft 451 kts 178°
2026-04-30 11:19 20.67149 109.69194 31100 ft 451 kts 178°
2026-04-30 11:20 20.60941 109.70087 31093 ft 450 kts 178°
2026-04-30 11:20 20.54740 109.70985 31104 ft 450 kts 176°
2026-04-30 11:21 20.48744 109.73170 31108 ft 466 kts 156°
2026-04-30 11:21 20.43483 109.77331 31105 ft 474 kts 146°
2026-04-30 11:22 20.38369 109.81776 31104 ft 474 kts 146°
2026-04-30 11:22 20.33284 109.86180 31099 ft 474 kts 146°
2026-04-30 11:23 20.28997 109.89892 31082 ft 474 kts 146°
2026-04-30 11:24 20.21323 109.96537 31099 ft 473 kts 146°
2026-04-30 11:24 20.16211 110.00965 31102 ft 473 kts 146°
2026-04-30 11:25 20.08653 110.07461 31106 ft 470 kts 149°
2026-04-30 11:25 20.02889 110.10335 31101 ft 451 kts 173°
2026-04-30 11:26 19.96785 110.10641 31097 ft 432 kts 194°
2026-04-30 11:26 19.91192 110.08687 31091 ft 421 kts 209°
2026-04-30 11:27 19.85851 110.06099 31093 ft 422 kts 209°
2026-04-30 11:27 19.80508 110.03521 31092 ft 422 kts 209°
2026-04-30 11:28 19.72469 109.99654 31093 ft 423 kts 208°
2026-04-30 11:29 19.67114 109.97074 31094 ft 423 kts 209°
2026-04-30 11:29 19.59068 109.93196 31083 ft 423 kts 208°
2026-04-30 11:30 19.51049 109.89348 31086 ft 424 kts 208°
2026-04-30 11:31 19.45674 109.86767 31091 ft 424 kts 208°
2026-04-30 11:31 19.40295 109.84189 31090 ft 424 kts 208°
2026-04-30 11:32 19.34912 109.81607 30951 ft 425 kts 207°
2026-04-30 11:32 19.32207 109.80317 30716 ft 427 kts 207°
2026-04-30 11:32 19.29491 109.79029 30490 ft 428 kts 207°
2026-04-30 11:33 19.24052 109.76464 30035 ft 429 kts 207°
2026-04-30 11:33 19.21329 109.75168 29764 ft 429 kts 207°
2026-04-30 11:33 19.18607 109.73858 29506 ft 430 kts 207°
2026-04-30 11:33 19.15888 109.72540 29237 ft 429 kts 207°
2026-04-30 11:34 19.13171 109.71223 28971 ft 428 kts 207°
2026-04-30 11:34 19.10471 109.69916 28712 ft 427 kts 207°
2026-04-30 11:34 19.07765 109.68609 28455 ft 426 kts 207°
2026-04-30 11:34 19.05080 109.67313 28203 ft 425 kts 207°
2026-04-30 11:35 19.02389 109.66016 27942 ft 425 kts 207°
2026-04-30 11:35 18.99703 109.64722 27692 ft 424 kts 207°
2026-04-30 11:35 18.97014 109.63428 27441 ft 424 kts 207°
2026-04-30 11:35 18.94338 109.62144 27197 ft 422 kts 207°
2026-04-30 11:36 18.91676 109.60870 26750 ft 418 kts 207°
2026-04-30 11:36 18.89034 109.59605 26139 ft 415 kts 207°
2026-04-30 11:36 18.86417 109.58353 25522 ft 412 kts 207°
2026-04-30 11:36 18.83817 109.57111 24925 ft 409 kts 207°
2026-04-30 11:37 18.81234 109.55874 24318 ft 407 kts 207°
2026-04-30 11:37 18.78666 109.54640 23710 ft 404 kts 207°
2026-04-30 11:37 18.76120 109.53414 23062 ft 402 kts 207°
2026-04-30 11:37 18.73590 109.52196 22445 ft 398 kts 207°
2026-04-30 11:38 18.71077 109.50989 21868 ft 395 kts 207°
2026-04-30 11:38 18.68577 109.49789 21312 ft 392 kts 207°
2026-04-30 11:38 18.66100 109.48599 20764 ft 390 kts 207°
2026-04-30 11:38 18.63643 109.47420 20242 ft 386 kts 207°
2026-04-30 11:39 18.61206 109.46253 19736 ft 383 kts 207°
2026-04-30 11:39 18.58786 109.45096 19257 ft 380 kts 207°
2026-04-30 11:39 18.56390 109.43952 18781 ft 376 kts 207°
2026-04-30 11:39 18.54015 109.42820 18268 ft 373 kts 207°
2026-04-30 11:40 18.51657 109.41695 17738 ft 370 kts 207°
2026-04-30 11:40 18.49281 109.40671 17216 ft 370 kts 200°
2026-04-30 11:40 18.46791 109.39997 16716 ft 368 kts 197°
2026-04-30 11:40 18.44444 109.39104 16234 ft 361 kts 212°
2026-04-30 11:41 18.42350 109.37671 15733 ft 358 kts 215°
2026-04-30 11:41 18.40266 109.36243 15225 ft 357 kts 215°
2026-04-30 11:41 18.38189 109.34820 14747 ft 355 kts 214°
2026-04-30 11:41 18.36128 109.33400 14287 ft 353 kts 214°
2026-04-30 11:42 18.34080 109.31984 13830 ft 351 kts 214°
2026-04-30 11:42 18.32052 109.30575 13313 ft 349 kts 215°
2026-04-30 11:42 18.30245 109.28911 12825 ft 344 kts 233°
2026-04-30 11:42 18.28911 109.26830 12286 ft 342 kts 235°
2026-04-30 11:43 18.27482 109.24841 11799 ft 340 kts 233°
2026-04-30 11:43 18.26179 109.22806 11311 ft 338 kts 245°
2026-04-30 11:43 18.25355 109.20501 10820 ft 336 kts 251°
2026-04-30 11:43 18.24689 109.18158 10353 ft 333 kts 262°
2026-04-30 11:44 18.24789 109.15790 10222 ft 319 kts 284°
2026-04-30 11:44 18.25409 109.13595 10117 ft 307 kts 287°
2026-04-30 11:44 18.26055 109.11497 9973 ft 296 kts 288°
2026-04-30 11:44 18.26690 109.09458 9705 ft 291 kts 288°
2026-04-30 11:45 18.27321 109.07439 9329 ft 289 kts 288°
2026-04-30 11:45 18.27949 109.05441 8952 ft 287 kts 288°
2026-04-30 11:45 18.28380 109.03402 8562 ft 285 kts 270°
2026-04-30 11:45 18.27967 109.01397 8182 ft 282 kts 243°
2026-04-30 11:46 18.26741 108.99820 7791 ft 280 kts 216°
2026-04-30 11:46 18.24986 108.98965 7367 ft 279 kts 196°
2026-04-30 11:46 18.23074 108.98718 6968 ft 278 kts 173°
2026-04-30 11:46 18.21295 108.99387 6590 ft 276 kts 146°
2026-04-30 11:47 18.19932 109.00788 6181 ft 275 kts 124°
2026-04-30 11:47 18.19253 109.02647 5775 ft 274 kts 98°
2026-04-30 11:47 18.19254 109.04639 5501 ft 272 kts 87°
2026-04-30 11:47 18.19352 109.06637 5381 ft 275 kts 87°
2026-04-30 11:48 18.19446 109.08644 5250 ft 274 kts 88°
2026-04-30 11:48 18.19536 109.10640 5046 ft 272 kts 88°
2026-04-30 11:48 18.19625 109.12630 5001 ft 273 kts 87°
2026-04-30 11:48 18.19713 109.14623 4967 ft 274 kts 87°
2026-04-30 11:49 18.19801 109.16623 4959 ft 274 kts 87°
2026-04-30 11:49 18.19888 109.18622 4958 ft 274 kts 87°
2026-04-30 11:49 18.19973 109.20626 4958 ft 274 kts 87°
2026-04-30 11:49 18.20057 109.22630 4958 ft 274 kts 87°
2026-04-30 11:50 18.20140 109.24632 4958 ft 274 kts 87°
2026-04-30 11:50 18.20225 109.26632 4955 ft 274 kts 87°
2026-04-30 11:50 18.20314 109.28634 4955 ft 274 kts 87°
2026-04-30 11:50 18.20402 109.30631 4955 ft 274 kts 87°
2026-04-30 11:51 18.20487 109.32633 4958 ft 274 kts 87°
2026-04-30 11:51 18.20571 109.34634 4958 ft 274 kts 87°
2026-04-30 11:51 18.20654 109.36637 4958 ft 274 kts 87°
2026-04-30 11:51 18.20838 109.38628 4906 ft 274 kts 82°
2026-04-30 11:52 18.21101 109.40610 4790 ft 273 kts 82°
2026-04-30 11:52 18.21361 109.42580 4413 ft 270 kts 82°
2026-04-30 11:52 18.21616 109.44528 4072 ft 268 kts 82°
2026-04-30 11:52 18.21869 109.46474 4026 ft 269 kts 82°
2026-04-30 11:53 18.22121 109.48428 4026 ft 270 kts 82°
2026-04-30 11:53 18.22374 109.50387 4028 ft 270 kts 82°
2026-04-30 11:53 18.22626 109.52337 4027 ft 270 kts 82°
2026-04-30 11:53 18.22880 109.54290 4028 ft 270 kts 82°
2026-04-30 11:54 18.23135 109.56244 4027 ft 270 kts 82°
2026-04-30 11:54 18.23388 109.58199 4027 ft 270 kts 82°
2026-04-30 11:54 18.23639 109.60153 4027 ft 270 kts 82°
2026-04-30 11:54 18.23887 109.62077 4024 ft 256 kts 82°
2026-04-30 11:55 18.24123 109.63867 4024 ft 240 kts 79°
2026-04-30 11:55 18.24750 109.65460 3964 ft 235 kts 51°
2026-04-30 11:55 18.26033 109.66468 3685 ft 231 kts 18°
2026-04-30 11:55 18.27576 109.66634 3617 ft 222 kts 352°
2026-04-30 11:56 18.29077 109.66422 3612 ft 216 kts 352°
2026-04-30 11:56 18.30562 109.66213 3616 ft 215 kts 352°
2026-04-30 11:56 18.32000 109.65811 3619 ft 215 kts 328°
2026-04-30 11:56 18.32977 109.64664 3614 ft 214 kts 293°
2026-04-30 11:57 18.33142 109.63149 3481 ft 208 kts 260°
2026-04-30 11:57 18.32890 109.61672 3355 ft 202 kts 261°
2026-04-30 11:57 18.32700 109.60226 3238 ft 197 kts 262°
2026-04-30 11:57 18.32530 109.58812 3098 ft 190 kts 263°
2026-04-30 11:58 18.32371 109.57484 2983 ft 175 kts 263°
2026-04-30 11:58 18.32226 109.56267 2843 ft 161 kts 263°
2026-04-30 11:58 18.32092 109.55143 2588 ft 152 kts 262°
2026-04-30 11:58 18.31954 109.54042 2222 ft 151 kts 262°
2026-04-30 11:59 18.31815 109.52961 1961 ft 146 kts 262°
2026-04-30 11:59 18.31680 109.51908 1750 ft 146 kts 262°
2026-04-30 11:59 18.31543 109.50847 1546 ft 147 kts 262°
2026-04-30 11:59 18.31404 109.49782 1349 ft 146 kts 262°
2026-04-30 12:00 18.31267 109.48724 1153 ft 147 kts 262°
2026-04-30 12:00 18.31127 109.47643 963 ft 149 kts 262°
2026-04-30 12:00 18.30986 109.46564 816 ft 149 kts 262°
2026-04-30 12:00 18.30849 109.45510 628 ft 141 kts 261°
2026-04-30 12:01 18.30722 109.44505 421 ft 136 kts 261°
2026-04-30 12:01 18.30592 109.43526 273 ft 134 kts 260°
2026-04-30 12:01 18.30455 109.42561 115 ft 133 kts 261°
2026-04-30 12:01 18.30361 109.41751 91 ft 73 kts 263°
2026-04-30 12:02 18.30320 109.41450 89 ft 32 kts 262°
2026-04-30 12:02 18.30336 109.41316 88 ft 6 kts 340°
2026-04-30 12:02 18.30374 109.41313 88 ft 5 kts 354°
2026-04-30 12:02 18.30412 109.41309 88 ft 5 kts 354°
2026-04-30 12:03 18.30450 109.41304 87 ft 5 kts 351°
2026-04-30 12:03 18.30523 109.41293 89 ft 5 kts 352°
2026-04-30 12:03 18.30559 109.41287 87 ft 7 kts 352°
2026-04-30 12:04 18.30615 109.41279 87 ft 8 kts 351°
2026-04-30 12:04 18.30669 109.41270 86 ft 7 kts 352°
2026-04-30 12:04 18.30719 109.41263 87 ft 7 kts 352°
2026-04-30 12:04 18.30761 109.41248 87 ft 6 kts 327°
2026-04-30 12:05 18.30779 109.41210 89 ft 6 kts 279°
2026-04-30 12:05 18.30776 109.41169 90 ft 6 kts 263°
2026-04-30 12:05 18.30773 109.41141 88 ft 7 kts 262°
2026-04-30 12:05 18.30762 109.41058 86 ft 12 kts 262°
2026-04-30 12:06 18.30750 109.40963 83 ft 14 kts 262°
2026-04-30 12:06 18.30735 109.40846 84 ft 18 kts 263°
2026-04-30 12:06 18.30717 109.40706 83 ft 19 kts 262°
2026-04-30 12:06 18.30706 109.40622 81 ft 16 kts 262°
2026-04-30 12:07 18.30697 109.40546 80 ft 7 kts 263°
2026-04-30 12:07 18.30721 109.40503 83 ft 5 kts 348°
2026-04-30 12:07 18.30743 109.40499 81 ft 5 kts 353°
2026-04-30 12:07 18.30761 109.40497 82 ft 0 kts 353°